{"data":{"norad_id":58956,"epoch":"2026-09-22T11:43:13.653408Z","epoch_age_seconds":80530,"freshness":"FRESH","line1":"1 58956U 24028B   26265.48835247 -.00000032  00000+0  49165-4 0  9995","line2":"2 58956  39.9914 315.6844 0013604  83.8591 276.3707 13.74397166130428","mean_motion":13.74397166,"eccentricity":0.0013604,"inclination_deg":39.9914,"raan_deg":315.6844,"arg_perigee_deg":83.8591,"mean_anomaly_deg":276.3707,"bstar":4.9165e-5,"rev_number":13042,"period_min":104.77320789237,"perigee_km":973.81152330911,"apogee_km":993.84195424958,"semimajor_km":7361.9637387793,"source":"CELESTRAK","updated_at":"2026-09-23T09:00:19.081802Z"}}